[[{"header":{"parameterUnit":"m.s-1","parameterCategory":1,"la1":30.2991,"la2":30.254,"lo1":-89.0895,"lo2":-89.0444,"dy":0.0017,"dx":0.0017,"nx":28,"ny":28,"refTime":"2024-05-31T21:00:00:Z","depth":0,"parameterNumber":2,"parameterNumberName":"U-component_of_WINDS"},"data":[0,0,0,0,0,0,0,0,0,0,0,0,0,0,0,0,0,0,0,0,0,0,0,0,0,0,0,0,0,0,0,0,0,0,0,0,0,0,0,0,0,0,0,0,0,0,0,0,0,0,0,0,0,0,0,0,0,0,0.8785,0.8783,0,0.8572,0.8569,0.8567,0.8415,0.8413,0.8412,0.8411,0.8188,0.8183,0.8179,0,0,0,0,0,0,0,0,0,0,0,0,0,0.9056,0.9052,0.8785,0.8783,0.878,0.8572,0.8569,0.8566,0.8415,0.8413,0.8412,0.841,0.819,0.8184,0.8178,0,0,0,0,0,0,0,0,0,0,0,0,0,0.89,0.9051,0.8786,0.8679,0.8668,0.8573,0.8569,0.8565,0.8415,0.8413,0.8411,0.841,0.8192,0.8185,0.8177,0.817,0,0,0.8156,0.8152,0,0,0,0,0,0,0,0,0.8909,0.8891,0.8698,0.8686,0.8673,0.8518,0.8583,0.8433,0.8416,0.8511,0.8411,0.8409,0.8299,0.8283,0.8247,0.8159,0.815,0.8155,0.8151,0.8147,0.8145,0,0,0,0,0,0,0,0.892,0.8899,0.87,0.8695,0.868,0.8641,0.8616,0.8554,0.8418,0.8502,0.8491,0.8468,0.8292,0.8254,0.824,0.8146,0.8155,0.8149,0.8144,0.8141,0.8039,0.8041,0,0,0,0,0,0,0.8949,0.8909,0.8707,0.8694,0.8789,0.8637,0.861,0.857,0.8418,0.8393,0.847,0.8462,0.8267,0.8249,0.8232,0.8211,0.8147,0.8141,0.8137,0.8038,0.804,0.8041,0,0,0,0,0,0,0.8955,0.8932,0.8716,0.8798,0.8768,0.8635,0.859,0.8566,0.8528,0.8393,0.8368,0.8456,0.8265,0.8242,0.8186,0.8201,0.8138,0.8131,0.8036,0.8038,0.8041,0.817,0,0,0,0,0,0,0.8963,0.8935,0.8932,0.8799,0.8764,0.8676,0.8591,0.8563,0.8517,0.8504,0.8374,0.8351,0.8262,0.8198,0.8179,0.819,0.8125,0.8034,0.8037,0.804,0.8164,0.8177,0.8188,0,0,0,0,0,0.8974,0.8977,0.8933,0.8909,0.8758,0.8677,0.8656,0.8555,0.8519,0.8513,0.8426,0.8355,0.8203,0.8193,0.8171,0.818,0.8032,0.8036,0.804,0.8159,0.8174,0.8188,0,0,0,0,0,0,0.9113,0.8957,0.8907,0.8868,0.8787,0.8651,0.8641,0.8575,0.8502,0.8493,0.837,0.8342,0.8298,0.8233,0.8225,0.8163,0.8109,0.8108,0.8207,0.8221,0.8232,0.8248,0.8119,0,0,0,0,0,0.914,0.9089,0.8955,0.8933,0.8895,0.8776,0.8737,0.8666,0.8577,0.8541,0.845,0.8365,0.8297,0.8256,0.8187,0.8155,0.8123,0.815,0.8162,0.8172,0.8172,0.8148,0.8158,0.8053,0.8053,0.8053,0,0,0.9193,0.9102,0.9077,0.8958,0.8887,0.8835,0.8748,0.8697,0.8656,0.8533,0.8474,0.8405,0.8301,0.8257,0.8233,0.8202,0.8195,0.8177,0.8186,0.818,0.8153,0.8163,0.8172,0.8056,0.8055,0.8055,0,0,0.9264,0.9191,0.9163,0.9094,0.8989,0.8909,0.8903,0.8777,0.8727,0.8666,0.8572,0.8522,0.8409,0.8339,0.8288,0.8332,0.8262,0.8313,0.8374,0.8353,0.8361,0.8367,0.8381,0.8387,0.8314,0.8315,0.8315,0,0.9343,0.9262,0.9157,0.9112,0.9061,0.8949,0.8919,0.8857,0.8734,0.8701,0.8668,0.8524,0.8446,0.8383,0.8394,0.8357,0.8344,0.8326,0.8369,0.8374,0.8379,0.839,0.8395,0.8321,0.8321,0.832,0.8319,0,0.9364,0.931,0.93,0.9185,0.9134,0.9096,0.8984,0.8944,0.8879,0.8803,0.8741,0.8645,0.8553,0.8533,0.8468,0.846,0.8444,0.8392,0.8334,0.8397,0.8405,0.8409,0.8331,0.8329,0.8327,0.8325,0,0,0.9515,0.9343,0.9341,0.9286,0.9161,0.9116,0.9073,0.8985,0.8953,0.8872,0.883,0.8738,0.8689,0.8632,0.8558,0.8539,0.8577,0.8488,0.8484,0.8506,0.8559,0.8598,0.8605,0.8531,0.8532,0.8532,0.8567,0,0.9564,0.9482,0.9386,0.9336,0.9283,0.9176,0.9138,0.9057,0.8984,0.8927,0.8847,0.8782,0.8724,0.8688,0.8665,0.8578,0.8586,0.8574,0.8489,0.8488,0.8517,0.8609,0.8649,0.8687,0.857,0.8571,0.8571,0,0.961,0.9535,0.9481,0.936,0.9334,0.9302,0.9212,0.916,0.9065,0.9013,0.8951,0.8871,0.8818,0.8769,0.8693,0.8688,0.8647,0.8599,0.8598,0.8584,0.8532,0.8596,0.8697,0.8702,0.8576,0.8575,0.8575,0,0.9723,0.9609,0.956,0.9518,0.9376,0.9355,0.9295,0.9198,0.9151,0.9073,0.904,0.8957,0.8911,0.8847,0.8747,0.8721,0.8681,0.8624,0.8634,0.8637,0.8628,0.863,0.8723,0.8608,0.8608,0.8608,0.8607,0,0.9786,0.9756,0.9609,0.9579,0.9542,0.9432,0.9397,0.9327,0.9242,0.9195,0.9098,0.9056,0.8927,0.8869,0.8791,0.8738,0.8719,0.8674,0.8653,0.8681,0.8686,0.8651,0.8645,0.8609,0.8609,0.8608,0.8608,0,0.9904,0.9805,0.9745,0.9616,0.9583,0.9561,0.9449,0.9416,0.9339,0.928,0.926,0.9138,0.9065,0.896,0.8854,0.8801,0.8759,0.8727,0.8792,0.8779,0.8795,0.8794,0.8866,0.8868,0.8756,0.8757,0.8758,0,0.995,0.9924,0.9793,0.9756,0.9699,0.964,0.9592,0.9482,0.9435,0.9325,0.9304,0.9224,0.9153,0.9041,0.8941,0.886,0.8823,0.8854,0.881,0.8839,0.882,0.8822,0.8817,0.8864,0.8866,0.8867,0.8868,0,1.0041,0.9993,0.9928,0.9846,0.9791,0.972,0.9645,0.9619,0.9493,0.9446,0.937,0.9316,0.9209,0.9129,0.9034,0.8969,0.8897,0.8884,0.8881,0.8908,0.8946,0.8923,0.8818,0.8882,0.888,0.8879,0.8878,0.8878,1.0122,1.0094,0.9997,0.9927,0.9859,0.9791,0.9753,0.9671,0.9607,0.9512,0.9451,0.9379,0.9282,0.9147,0.9087,0.9027,0.8997,0.8994,0.8993,0.8993,0.9002,0.8958,0.9009,0.9009,0.9008,0.9008,0.9007,0,1.0205,1.0138,1.0076,0.9974,0.9919,0.9858,0.9771,0.9728,0.9666,0.9584,0.9517,0.9429,0.9352,0.9247,0.9162,0.9134,0.9098,0.9114,0.9114,0.91,0.9035,0.9044,0.9144,0.9144,0.9144,0.9144,0.9144,0.9144,1.0242,1.0191,1.0132,1.0045,0.9977,0.9906,0.9862,0.9798,0.9731,0.9638,0.9574,0.9507,0.9414,0.9321,0.9247,0.9218,0.9189,0.9216,0.9176,0.9117,0.9105,0.9093,0.9101,0.9211,0.9211,0.9245,0.9246,0.9246]},{"header":{"parameterUnit":"m.s-1","parameterCategory":1,"la1":30.2991,"la2":30.254,"lo1":-89.0895,"lo2":-89.0444,"dy":0.0017,"dx":0.0017,"nx":28,"ny":28,"refTime":"2024-05-31T21:00:00:Z","depth":0,"parameterNumber":3,"parameterNumberName":"V-component_of_WINDS"},"data":[0,0,0,0,0,0,0,0,0,0,0,0,0,0,0,0,0,0,0,0,0,0,0,0,0,0,0,0,0,0,0,0,0,0,0,0,0,0,0,0,0,0,0,0,0,0,0,0,0,0,0,0,0,0,0,0,0,0,7.4157,7.4158,0,7.4234,7.4235,7.4236,7.418,7.4177,7.4175,7.4173,7.4244,7.4248,7.4252,0,0,0,0,0,0,0,0,0,0,0,0,0,7.3951,7.3955,7.4157,7.4158,7.4159,7.4234,7.4235,7.4236,7.418,7.4177,7.4174,7.4171,7.4243,7.4248,7.4253,0,0,0,0,0,0,0,0,0,0,0,0,0,7.4036,7.3957,7.4157,7.4141,7.414,7.4234,7.4235,7.4237,7.4181,7.4177,7.4173,7.417,7.4241,7.4247,7.4254,7.4366,0,0,7.4273,7.4275,0,0,0,0,0,0,0,0,7.4031,7.4043,7.4142,7.4142,7.4141,7.4194,7.4189,7.428,7.4182,7.4165,7.4173,7.4168,7.423,7.4237,7.4259,7.4369,7.4373,7.4273,7.4277,7.428,7.4282,0,0,0,0,0,0,0,7.4025,7.404,7.4187,7.4143,7.4143,7.4126,7.4134,7.4206,7.4217,7.4166,7.4162,7.4173,7.4229,7.4253,7.426,7.4374,7.4273,7.4279,7.4283,7.4285,7.4574,7.4577,0,0,0,0,0,0,7.4022,7.4035,7.4185,7.419,7.4076,7.4132,7.4141,7.4181,7.4216,7.4218,7.4176,7.417,7.4244,7.4253,7.4263,7.4393,7.428,7.4286,7.4289,7.457,7.4575,7.4579,0,0,0,0,0,0,7.4018,7.4036,7.4182,7.4112,7.4129,7.414,7.4184,7.4184,7.4208,7.4223,7.4224,7.4199,7.4242,7.4254,7.434,7.4395,7.4289,7.4294,7.4565,7.4571,7.4577,7.4656,0,0,0,0,0,0,7.4012,7.4035,7.4081,7.4113,7.4133,7.4261,7.4188,7.4188,7.422,7.4213,7.4246,7.4247,7.424,7.4331,7.4346,7.4401,7.4299,7.456,7.4568,7.4575,7.4649,7.4664,7.4677,0,0,0,0,0,7.4005,7.41,7.4083,7.4102,7.4191,7.4265,7.4275,7.4267,7.4225,7.4269,7.4277,7.4246,7.4387,7.434,7.4357,7.4415,7.4557,7.4566,7.4574,7.4642,7.4661,7.4677,0,0,0,0,0,0,7.4072,7.4104,7.4086,7.4195,7.4227,7.4255,7.431,7.4288,7.4332,7.4323,7.4308,7.4316,7.4406,7.4419,7.4367,7.4523,7.4465,7.4477,7.4511,7.4529,7.4543,7.4536,7.4304,0,0,0,0,0,7.41,7.416,7.4183,7.4276,7.4294,7.43,7.4332,7.4322,7.4355,7.4368,7.4383,7.4413,7.4464,7.4497,7.4545,7.4651,7.4655,7.4699,7.4713,7.4725,7.4735,7.4787,7.4805,7.4608,7.4608,7.4607,0,0,7.4157,7.4181,7.422,7.429,7.4315,7.4374,7.4312,7.4378,7.442,7.4377,7.4458,7.4471,7.4503,7.4599,7.4642,7.4613,7.479,7.4736,7.4745,7.4749,7.4798,7.4816,7.4833,7.4614,7.4612,7.4612,0,0,7.429,7.4317,7.4395,7.4421,7.4459,7.4461,7.448,7.451,7.4517,7.4599,7.4567,7.4615,7.4704,7.4727,7.4751,7.4889,7.486,7.4905,7.4978,7.5029,7.5045,7.5058,7.5103,7.512,7.4915,7.4916,7.4916,0,7.4355,7.4446,7.4438,7.4505,7.4535,7.45,7.4576,7.46,7.4651,7.4671,7.4638,7.4746,7.4766,7.4864,7.4897,7.4919,7.4936,7.49,7.5044,7.5057,7.507,7.5112,7.513,7.492,7.492,7.4919,7.4919,0,7.4521,7.4584,7.4642,7.4693,7.4729,7.4801,7.48,7.4837,7.4823,7.4828,7.4909,7.4932,7.4981,7.5004,7.4992,7.5099,7.508,7.5046,7.4987,7.5094,7.5133,7.515,7.4927,7.4926,7.4924,7.4923,0,0,7.4699,7.4743,7.4764,7.4784,7.4822,7.4869,7.4937,7.4987,7.5016,7.5052,7.5105,7.518,7.5148,7.5174,7.5164,7.5209,7.5311,7.5169,7.5169,7.5191,7.5426,7.5448,7.5468,7.5294,7.5297,7.5299,7.5421,0,7.4831,7.4952,7.4945,7.5056,7.5111,7.5077,7.5135,7.5163,7.5168,7.5213,7.5218,7.5269,7.5226,7.524,7.5284,7.529,7.5358,7.5282,7.5339,7.5341,7.5329,7.5489,7.5514,7.5628,7.5437,7.544,7.5442,0,7.5002,7.5043,7.5161,7.5186,7.5209,7.5262,7.5304,7.5349,7.5377,7.5378,7.5406,7.5387,7.5451,7.5393,7.5478,7.5426,7.5449,7.5456,7.546,7.5462,7.5396,7.5492,7.5665,7.5681,7.5467,7.5465,7.5463,0,7.5114,7.5199,7.5279,7.5298,7.5331,7.5368,7.5383,7.5409,7.5438,7.5474,7.5492,7.5535,7.5558,7.559,7.5582,7.5541,7.5668,7.561,7.5666,7.5666,7.5692,7.569,7.5868,7.5714,7.5713,7.5713,7.5713,0,7.526,7.5332,7.5329,7.5378,7.5456,7.5446,7.5522,7.5532,7.5555,7.5602,7.5575,7.562,7.5608,7.5651,7.5645,7.5714,7.5725,7.5724,7.5721,7.5725,7.5724,7.5737,7.5728,7.5717,7.5716,7.5716,7.5715,0,7.5398,7.54,7.5484,7.5508,7.5515,7.5571,7.559,7.5634,7.5637,7.5696,7.571,7.5713,7.5762,7.5758,7.5813,7.5808,7.5892,7.5882,7.5883,7.5879,7.5935,7.5928,7.6125,7.6148,7.5982,7.5983,7.5985,0,7.549,7.5544,7.5573,7.5604,7.5621,7.5671,7.57,7.569,7.5721,7.5756,7.5794,7.5841,7.5878,7.5957,7.5962,7.6003,7.599,7.6056,7.5996,7.5997,7.5986,7.5982,7.5985,7.6067,7.6069,7.607,7.6072,0,7.565,7.5647,7.5692,7.5735,7.5771,7.5804,7.5834,7.586,7.5853,7.5888,7.5938,7.5967,7.6022,7.6067,7.6105,7.6117,7.6092,7.6091,7.6105,7.6108,7.6105,7.6103,7.5911,7.6086,7.6084,7.6083,7.6083,7.6082,7.5765,7.581,7.5836,7.5885,7.5907,7.5935,7.5976,7.5984,7.6026,7.6071,7.6062,7.6117,7.614,7.6188,7.6204,7.6245,7.6221,7.6243,7.6248,7.6252,7.6257,7.6101,7.6252,7.6252,7.6251,7.6251,7.6251,0,7.592,7.5935,7.598,7.6023,7.606,7.6035,7.6067,7.6098,7.6147,7.6172,7.6208,7.6263,7.6306,7.6315,7.6355,7.6385,7.6374,7.6396,7.6392,7.6394,7.6279,7.626,7.6404,7.6404,7.6404,7.6403,7.6403,7.6403,7.6005,7.6078,7.6078,7.616,7.6174,7.6229,7.6248,7.6272,7.6291,7.6354,7.639,7.6396,7.6412,7.6453,7.649,7.6491,7.6505,7.653,7.6526,7.6418,7.6403,7.6388,7.637,7.6534,7.6535,7.6638,7.6639,7.6639]}]]